Weather History for KGPH - June, 2013

Change the Weather History Date:

Saturday, June 15, 2013

  Actual Average (KMCI) Record (KMCI)
Temperature  
Mean Temperature 76 °F 74 °F  
Max Temperature 87 °F 84 °F 102 °F (1953)
Min Temperature 64 °F 64 °F 52 °F (1917)
Degree Days  
Heating Degree Days 0 0  
Month to date heating degree days 7  
Since 1 June heating degree days 7  
Since 1 July heating degree days 5131  
Cooling Degree Days 10 9  
Month to date cooling degree days 106  
Year to date cooling degree days 222  
Since 1 June cooling degree days 106  
Growing Degree Days 26 (Base 50)    
Moisture  
Dew Point 67 °F    
Average Humidity 79    
Maximum Humidity 100    
Minimum Humidity 49    
Precipitation  
Precipitation 0.00 in 0.17 in 2.16 in (2009)
Month to date precipitation 2.66  
Year to date precipitation 16.49  
Snow  
Snow 0.00 in 0.00 in 0.00 in ()
Month to date snowfall 0.0  
Since 1 June snowfall 0.0  
Since 1 July snowfall 18.8  
Snow Depth -    
Sea Level Pressure  
Sea Level Pressure 29.96 in    
Wind  
Wind Speed 8 mph (SE)    
Max Wind Speed 26 mph    
Max Gust Speed 37 mph    
Visibility 10 miles    
Events Rain , Thunderstorm    
T = Trace of Precipitation, MM = Missing Value Source: NWS Daily Summary

Daily Weather History Graph

Daily Weather History Graph

Search for Another Location

Airport or City:

Trip Planner

Search our weather history database for the weather conditions in past years. The results will help you decide how hot, cold, wet, or windy it might be!

Date:

Astronomy

Jun. 15, 2013 Rise Set
Actual Time 5:49 AM CDT 8:45 PM CDT
Civil Twilight 5:17 AM CDT 9:18 PM CDT
Nautical Twilight 4:36 AM CDT 9:59 PM CDT
Astronomical Twilight 3:49 AM CDT 10:46 PM CDT
Moon 12:23 PM CDT (6/15) 12:23 AM CDT (6/15)
Length of Visible Light 16h 00m
Length of Day
14h 55m
Waxing Crescent, 40% of the Moon is Illuminated
Jun 15
Waxing Crescent
Jun 16
First Quarter
Jun 23
Full
Jun 29
Last Quarter
Jul 8
New

Hourly Weather History & Observations

Time (CDT) Temp. Heat Index Dew Point Humidity Pressure Visibility Wind Dir Wind Speed Gust Speed Precip Events Conditions
12:15 AM 77.0 °F - 68.0 °F 74% 29.92 in 10.0 mi SSE 9.2 mph 16.1 mph N/A   Clear
12:35 AM 77.0 °F - 68.0 °F 74% 29.92 in 10.0 mi SSE 8.1 mph - N/A   Clear
12:55 AM 77.0 °F - 68.0 °F 74% 29.93 in 10.0 mi SE 6.9 mph - N/A   Clear
1:15 AM 77.0 °F - 68.0 °F 74% 29.93 in 10.0 mi SSE 5.8 mph - N/A   Clear
1:35 AM 77.0 °F - 68.0 °F 74% 29.93 in 10.0 mi Calm Calm - N/A   Clear
1:55 AM 77.0 °F - 68.0 °F 74% 29.95 in 10.0 mi ESE 4.6 mph - N/A   Clear
2:15 AM 77.0 °F - 68.0 °F 74% 29.94 in 10.0 mi Calm Calm - N/A   Clear
2:35 AM 77.0 °F - 68.0 °F 74% 29.96 in 10.0 mi NE 8.1 mph - N/A   Clear
2:55 AM 75.2 °F - 68.0 °F 78% 29.97 in 10.0 mi NNE 9.2 mph - N/A   Clear
3:15 AM 75.2 °F - 66.2 °F 73% 29.98 in 10.0 mi ENE 11.5 mph - N/A   Unknown
3:35 AM 75.2 °F - 64.4 °F 69% 29.98 in 10.0 mi East 11.5 mph 20.7 mph N/A   Scattered Clouds
3:55 AM 73.4 °F - 62.6 °F 69% 29.97 in 10.0 mi East 11.5 mph 17.3 mph N/A   Clear
4:15 AM 73.4 °F - 62.6 °F 69% 29.96 in 10.0 mi ESE 8.1 mph 16.1 mph N/A   Scattered Clouds
4:35 AM 73.4 °F - 62.6 °F 69% 29.96 in 10.0 mi SSE 8.1 mph - N/A   Scattered Clouds
4:55 AM 73.4 °F - 62.6 °F 69% 29.96 in 10.0 mi ESE 9.2 mph - N/A   Scattered Clouds
5:15 AM 71.6 °F - 62.6 °F 73% 29.97 in 10.0 mi SE 8.1 mph - N/A   Unknown
5:35 AM 71.6 °F - 62.6 °F 73% 29.96 in 10.0 mi SE 10.4 mph 16.1 mph N/A   Mostly Cloudy
5:55 AM 71.6 °F - 62.6 °F 73% 29.96 in 10.0 mi SE 8.1 mph - N/A   Mostly Cloudy
6:15 AM 71.6 °F - 62.6 °F 73% 29.97 in 10.0 mi East 9.2 mph - N/A   Scattered Clouds
6:35 AM 71.6 °F - 62.6 °F 73% 29.97 in 10.0 mi ESE 8.1 mph - N/A   Mostly Cloudy
6:55 AM 71.6 °F - 62.6 °F 73% 29.97 in 10.0 mi SE 6.9 mph - N/A   Mostly Cloudy
7:15 AM 69.8 °F - 62.6 °F 78% 29.97 in 10.0 mi SE 5.8 mph - N/A Thunderstorm Scattered Clouds
7:35 AM 69.8 °F - 64.4 °F 83% 29.97 in 10.0 mi SSE 9.2 mph - N/A   Scattered Clouds
7:55 AM 71.6 °F - 64.4 °F 78% 29.98 in 10.0 mi SE 9.2 mph - N/A   Scattered Clouds
8:15 AM 71.6 °F - 64.4 °F 78% 29.97 in 10.0 mi SE 12.7 mph - N/A   Clear
8:35 AM 75.2 °F - 66.2 °F 73% 29.97 in 10.0 mi SSE 8.1 mph - N/A   Clear
8:55 AM 75.2 °F - 68.0 °F 78% 29.96 in 10.0 mi SE 8.1 mph - N/A   Clear
9:15 AM 75.2 °F - 68.0 °F 78% 29.96 in 10.0 mi SSE 8.1 mph - N/A   Clear
9:35 AM 77.0 °F - 68.0 °F 74% 29.96 in 10.0 mi SSE 11.5 mph - N/A   Clear
9:55 AM 77.0 °F - 68.0 °F 74% 29.96 in 10.0 mi South 10.4 mph 16.1 mph N/A   Clear
10:15 AM 77.0 °F - 68.0 °F 74% 29.96 in 10.0 mi South 10.4 mph - N/A   Clear
10:35 AM 77.0 °F - 69.8 °F 78% 29.96 in 10.0 mi SSE 5.8 mph - N/A   Clear
10:55 AM 77.0 °F - 69.8 °F 78% 29.96 in 10.0 mi SE 4.6 mph - N/A   Clear
11:15 AM 77.0 °F - 69.8 °F 78% 29.96 in 10.0 mi SE 6.9 mph - N/A   Clear
11:35 AM 78.8 °F - 71.6 °F 78% 29.96 in 10.0 mi SE 4.6 mph - N/A   Clear
11:55 AM 80.6 °F 84.6 °F 71.6 °F 74% 29.96 in 10.0 mi SSE 6.9 mph - N/A   Clear
12:15 PM 80.6 °F 84.6 °F 71.6 °F 74% 29.95 in 10.0 mi SE 4.6 mph - N/A   Clear
12:35 PM 80.6 °F 85.4 °F 73.4 °F 79% 29.96 in 10.0 mi SSE 4.6 mph - N/A   Clear
12:55 PM 86.0 °F 91.8 °F 71.6 °F 62% 29.97 in 10.0 mi WSW 9.2 mph 16.1 mph N/A   Clear
1:15 PM 86.0 °F 90.4 °F 69.8 °F 58% 29.96 in 10.0 mi SW 11.5 mph - N/A   Clear
1:35 PM 86.0 °F 90.4 °F 69.8 °F 58% 29.95 in 10.0 mi WSW 5.8 mph - N/A   Clear
1:55 PM 87.8 °F 92.6 °F 69.8 °F 55% 29.94 in 10.0 mi WSW 8.1 mph - N/A   Clear
2:15 PM 87.8 °F 92.6 °F 69.8 °F 55% 29.93 in 10.0 mi WNW 8.1 mph - N/A   Clear
2:35 PM 87.8 °F 91.4 °F 68.0 °F 52% 29.92 in 10.0 mi West 3.5 mph - N/A   Scattered Clouds
2:55 PM 87.8 °F 90.4 °F 66.2 °F 49% 29.91 in 10.0 mi NNW 9.2 mph - N/A   Scattered Clouds
3:15 PM 87.8 °F 91.4 °F 68.0 °F 52% 29.91 in 10.0 mi WNW 4.6 mph - N/A   Scattered Clouds
3:35 PM 87.8 °F 90.4 °F 66.2 °F 49% 29.90 in 10.0 mi North 8.1 mph - N/A Thunderstorm Scattered Clouds
3:55 PM 84.2 °F 86.6 °F 66.2 °F 55% 29.90 in 10.0 mi NNW 9.2 mph - N/A Thunderstorm Mostly Cloudy
4:15 PM 80.6 °F 82.3 °F 64.4 °F 58% 29.92 in 10.0 mi WSW 8.1 mph 25.3 mph N/A Thunderstorm Overcast
4:35 PM 68.0 °F - 64.4 °F 88% 30.07 in 0.8 mi South 26.5 mph 36.8 mph N/A Rain , Thunderstorm Heavy Thunderstorms and Rain
4:55 PM 64.4 °F - 64.4 °F 100% 30.02 in 2.0 mi WSW 10.4 mph 25.3 mph N/A Rain , Thunderstorm Heavy Thunderstorms and Rain
5:15 PM 66.2 °F - 66.2 °F 100% 29.99 in 10.0 mi SSW 9.2 mph - N/A Rain , Thunderstorm Light Thunderstorms and Rain
5:35 PM 68.0 °F - 68.0 °F 100% 30.01 in 10.0 mi SSW 10.4 mph 16.1 mph N/A Rain , Thunderstorm Light Thunderstorms and Rain
5:55 PM 68.0 °F - 68.0 °F 100% 30.02 in 7.0 mi South 6.9 mph - N/A Rain , Thunderstorm Heavy Thunderstorms and Rain
6:15 PM 68.0 °F - 68.0 °F 100% 30.02 in 7.0 mi South 9.2 mph - N/A Rain , Thunderstorm Thunderstorms and Rain
6:35 PM 69.8 °F - 68.0 °F 94% 30.00 in 10.0 mi South 10.4 mph 16.1 mph N/A Rain Rain
6:55 PM 68.0 °F - 68.0 °F 100% 29.97 in 10.0 mi SSE 9.2 mph - N/A Rain , Thunderstorm Rain
7:15 PM 68.0 °F - 68.0 °F 100% 29.95 in 10.0 mi SE 9.2 mph 18.4 mph N/A Rain , Thunderstorm Light Thunderstorms and Rain
7:35 PM 68.0 °F - 68.0 °F 100% 29.93 in 10.0 mi SE 8.1 mph 16.1 mph N/A   Mostly Cloudy
7:55 PM 68.0 °F - 68.0 °F 100% 29.92 in 10.0 mi SE 8.1 mph - N/A   Unknown
8:15 PM 68.0 °F - 68.0 °F 100% 29.92 in 10.0 mi SE 8.1 mph - N/A   Overcast
8:35 PM 68.0 °F - 68.0 °F 100% 29.91 in 10.0 mi SE 8.1 mph - N/A   Overcast
8:55 PM 68.0 °F - 68.0 °F 100% 29.95 in 10.0 mi South 4.6 mph - N/A Rain Light Rain
9:15 PM 68.0 °F - 68.0 °F 100% 29.92 in 10.0 mi SE 6.9 mph - N/A Rain Light Rain
9:35 PM 68.0 °F - 68.0 °F 100% 29.92 in 10.0 mi SSE 4.6 mph - N/A   Overcast
9:55 PM 68.0 °F - 68.0 °F 100% 29.97 in 10.0 mi NNW 13.8 mph - N/A   Unknown
10:15 PM 68.0 °F - 68.0 °F 100% 29.99 in 10.0 mi North 10.4 mph - N/A   Overcast
10:35 PM 68.0 °F - 68.0 °F 100% 29.99 in 10.0 mi NE 8.1 mph - N/A   Overcast
10:55 PM 68.0 °F - 68.0 °F 100% 30.00 in 10.0 mi North 10.4 mph - N/A   Overcast
11:15 PM 68.0 °F - 68.0 °F 100% 29.97 in 10.0 mi ESE 5.8 mph - N/A   Overcast
11:35 PM 68.0 °F - 68.0 °F 100% 29.96 in 10.0 mi Calm Calm - N/A   Overcast
11:55 PM 68.0 °F - 68.0 °F 100% 29.96 in 10.0 mi Calm Calm - N/A   Overcast